Tracking 27380 objects as of 6-Jun-2023
HD Live streaming from Space Station
objects crossing your sky now

NOAA 1 DEB *

Track NOAA 1 DEB * now!
10-day predictions


NORAD ID: 8828
Int'l Code: 1970-106C
Perigee: 1,494.5 km
Apogee: 1,539.2 km
Inclination: 102.1 °
Period: 116.2 minutes
Semi major axis: 7887 km
RCS: 0.0417 m2 (small)
Launch date: December 11, 1970
Source: United States (US)
Launch site: AIR FORCE WESTERN TEST RANGE (AFWTR)

Note: This is SATELLITE DEBRIS
Your satellite tracking list
Your tracking list is empty




NASA's NSSDC Master Catalog

Two Line Element Set (TLE):
1 08828U 70106C   23157.40060807  .00000146  00000-0  14418-2 0  9994
2 08828 102.1098 121.2277 0028361  17.2283 134.6580 12.39271401374207
Source of the keplerian elements: AFSPC